Flag for China Weather past 2 weeks in Shanghai, Shanghai Municipality, China

Now
75 °F

Sunny.


Feels Like: 77 °F
Forecast: 55 / 74 °F
Wind: 15 mph from Northeast

Location: Shanghai Hongqiao Airport

Current Time: May 4, 2015 at 2:01:18 PM

Latest Report: May 4, 2015 at 1:30 PM


Visibility: 10 mi

Pressure: 29.98 "Hg

Humidity: 34%

Dew point: 45 °F

Location of ShanghaiLocation

Historic Weather in Shanghai — Graph

°F

Shanghai temperature yesterday

Maximum temperature yesterday: 75 °F (at 2:30 PM)
Minimum temperature yesterday: 61 °F (at 12:30 AM)
Average temperature yesterday: 67 °F

Past Weeks' High & Low Weather Summary

 TemperatureHumidityPressure
High88 °F (Apr 28, 1:00 PM)100% (May 2, 7:00 PM)30.21 "Hg (May 2, 7:00 PM)
Low45 °F (Apr 21, 5:30 AM)12% (Apr 23, 3:30 PM)29.59 "Hg (Apr 19, 4:00 PM)
Average67 °F64%29.94 "Hg
* Reported Apr 19 12:00 Noon — May 4 12:30 PM, Shanghai, Weather by CustomWeather, © 2015

Note: Actual official high and low records may vary slightly from our data, if they occured in-between our weather recording intervals... More about our weather records

Advertising

Shanghai weather history for previous 24 hours

 ConditionsComfort  
Time TempWeatherWind HumidityBarometerVisibility
12:30 PM
Mon, May 4
75 °FSunny.17 mph39%29.98 "Hg10 mi
12:00 PM77 °FClear.15 mph39%29.98 "Hg5 mi
11:30 AM75 °FHaze.15 mph50%30.01 "Hg3 mi
11:00 AM75 °FHaze.17 mph50%30.01 "Hg3 mi
10:30 AM75 °FHaze.13 mph57%30.01 "Hg3 mi
10:00 AM75 °FHaze.13 mph57%30.01 "Hg3 mi
9:30 AM73 °FHaze.13 mph61%30.01 "Hg2 mi
9:00 AM72 °FHaze.10 mph69%30.01 "Hg2 mi
8:30 AM70 °FFog.8 mph73%30.01 "Hg2 mi
8:00 AM68 °FFog.3 mph78%29.98 "Hg2 mi
7:30 AM66 °FFog.3 mph88%29.98 "Hg2 mi
7:00 AM64 °FFog.1 mph94%29.98 "Hg1 mi
6:30 AM64 °FFog.1 mph88%29.98 "Hg1 mi
6:00 AM63 °FFog.1 mph94%29.98 "Hg1 mi
5:30 AM63 °FFog.3 mph94%29.95 "Hg1 mi
4:30 AM63 °FFog.No wind88%29.92 "Hg2 mi
4:00 AM63 °FFog.No wind88%29.89 "Hg2 mi
3:30 AM63 °FFog.No wind94%29.92 "Hg2 mi
3:00 AM63 °FFog.1 mph88%29.89 "Hg2 mi
2:30 AM63 °FFog.3 mph88%29.89 "Hg2 mi
2:00 AM63 °FFog.1 mph88%29.89 "Hg2 mi
1:30 AM64 °FFog.No wind83%29.89 "Hg2 mi
1:00 AM64 °FFog.No wind83%29.89 "Hg3 mi
12:30 AM64 °FFog.3 mph83%29.92 "Hg3 mi
12:00 AM64 °FClear.3 mph83%29.92 "Hg4 mi
11:30 PM
Sun, May 3
64 °FClear.3 mph83%29.92 "Hg4 mi
11:00 PM66 °FClear.3 mph83%29.92 "Hg4 mi
10:30 PM66 °FClear.3 mph83%29.92 "Hg4 mi
10:00 PM66 °FClear.3 mph83%29.92 "Hg4 mi
9:30 PM66 °FClear.6 mph83%29.92 "Hg4 mi
9:00 PM66 °FClear.6 mph83%29.92 "Hg10 mi
8:30 PM68 °FClear.6 mph78%29.92 "Hg10 mi
8:00 PM66 °FClear.3 mph78%29.92 "Hg10 mi
7:30 PM70 °FClear.8 mph69%29.89 "Hg10 mi
7:00 PM70 °FClear.8 mph69%29.89 "Hg10 mi
6:30 PM70 °FSunny.10 mph69%29.86 "Hg10 mi
6:00 PM72 °FPassing clouds.10 mph65%29.86 "HgN/A
5:30 PM72 °FScattered clouds.13 mph65%29.86 "HgN/A
5:00 PM73 °FScattered clouds.15 mph57%29.83 "HgN/A
4:30 PM73 °FPassing clouds.13 mph57%29.83 "HgN/A
4:00 PM75 °FPassing clouds.13 mph54%29.83 "HgN/A
3:30 PM75 °FPassing clouds.15 mph54%29.83 "HgN/A
3:00 PM75 °FPassing clouds.13 mph57%29.83 "HgN/A
2:30 PM75 °FPassing clouds.10 mph61%29.83 "HgN/A
2:00 PM73 °FPassing clouds.15 mph61%29.83 "HgN/A
Weather by CustomWeather, © 2015

See weather overviewHow to use our weather pages